Regional Weather Roundup
Issued by NWS

Home | Current Version | Previous Version | Graphics & Text | Print | Product List | Glossary On
Versions: 1 2 3 4 5 6 7 8 9 10 11 12 13 14 15 16 17 18 19 20 21 22 23 24 25 26 27 28 29 30 31 32 33 34 35 36 37 38 39 40 41 42 43 44 45 46 47 48 49 50
509
ASUS45 KTFX 180910
RWRMT
MONTANA REGIONAL WEATHER ROUNDUP
NATIONAL WEATHER SERVICE GREAT FALLS MT
200 AM MST WED JAN 18 2017

NOTE: "FAIR" INDICATES FEW OR NO CLOUDS BELOW 12000 FEET WITH NO
SIGNIFICANT WEATHER AND/OR OBSTRUCTIONS TO VISIBILITY.

MTZ001>007-043-181000-
WEST OF THE DIVIDE

CITY           SKY/WX    TMP DP  RH WIND       PRES   REMARKS
KALISPELL      CLOUDY    22  18  85 CALM      29.78F
MISSOULA       CLOUDY    15  11  83 CALM      29.86F
BUTTE          CLOUDY     9   5  84 SE3       29.86F
MULLAN PASS    LGT SNOW  26  25  96 SE8       29.73S VSB 3/4 WCI  18
ANACONDA         N/A     34  18  51 SE23G29   29.80F WCI  22
DEER LODGE       N/A     34  21  60 SW6       29.82S WCI  29
EUREKA           N/A     27  23  86 CALM      29.75F
HAMILTON         N/A     14   9  79 NE3       29.81F
PLAINS           N/A     19  11  71 CALM      29.85F
RONAN            N/A     15  11  84 MISG      29.83F
$$

MTZ008-052>055-181000-
SOUTHWEST MONTANA

CITY           SKY/WX    TMP DP  RH WIND       PRES   REMARKS
BOZEMAN        CLOUDY    11   6  81 S8        29.87F WCI  -1
DILLON         CLOUDY    26  10  50 S10       29.91F WCI  16
W YELLOWSTONE  CLOUDY   -13 -18  77 CALM      30.10F
ENNIS          CLEAR     28  16  59 S20G25    29.94F WCI  15
TWIN BRIDGES     N/A     23   8  52 E10       29.91F WCI  12
$$

MTZ009-010-012-014-046-048-049-054-181000-
EAST SLOPES AND CENTRAL MONTANA

CITY           SKY/WX    TMP DP  RH WIND       PRES   REMARKS
CUT BANK       PTCLDY    39  27  62 S7        29.57S
GREAT FALLS    CLOUDY    41  25  53 SW28      29.65F
MALMSTROM AFB  CLOUDY    42  28  57 SW16      29.66F
HELENA         CLOUDY     7   3  84 CALM      29.83F
AUGUSTA          N/A     35  24  63 S15       29.62F WCI  26
BOWMANS CRNR     N/A     31  22  67 S32       29.64F WCI  16
CHOTEAU          N/A     43  25  49 S22G28    29.62S
CONRAD           N/A     40  31  70 S31       29.63F
POWER            N/A     40  26  57 S24G32    29.62F
RAYNESFORD       N/A     50  24  35 SW26G33   29.67F
ULM              N/A     42  26  53 MISG      29.67F
$$

MTZ011-013-016-021-045-047-050-051-181000-
NORTH CENTRAL MONTANA

CITY           SKY/WX    TMP DP  RH WIND       PRES   REMARKS
HAVRE          CLOUDY    37  30  75 SW17      29.59F WCI  27
LEWISTOWN      CLOUDY    45  27  49 SW25      29.69F
N BAR RANCH      N/A     36  25  64 CALM      29.72F
CHINOOK          N/A     34  27  75 E3        29.60F
DENTON           N/A     40  28  60 S12       29.65F
FORT BENTON      N/A     41  28  60 MISG      29.62F
GEYSER           N/A     44  28  51 CALM      29.65F
GRASS RANGE      N/A     45  28  52 SW10      29.65F
JUDITH GAP       N/A     42  24  49 SW25      29.74F
ROY              N/A     52  30  42 MISG      29.63F
STANFORD         N/A     44  28  52 E3        29.68S
WINIFRED         N/A     46  27  47 SW16      29.65F
$$

MTZ017>020-022>027-061-062-181000-
NORTHEAST MONTANA

CITY           SKY/WX    TMP DP  RH WIND       PRES   REMARKS
GLASGOW        CLOUDY    27  22  81 SE12      29.65F WCI  17
JORDAN           N/A     40  27  59 W8        29.68S
SIDNEY         CLOUDY    27  21  78 S12       29.72S WCI  17
WOLF POINT     CLOUDY    12   7  80 CALM      29.70F
PLENTYWOOD       N/A     32  27  80 E6        29.65S WCI  26
POPLAR           N/A     28  25  86 CALM      29.70F
SCOBEY           N/A     37  24  60 SW6       29.65F
$$

MTZ028>42-056>058-181000-
SOUTHCENTRAL AND SOUTHEAST MONTANA

CITY           SKY/WX    TMP DP  RH WIND       PRES   REMARKS
BAKER          CLEAR     37  22  54 SW21      29.76F WCI  26
BILLINGS       CLOUDY    32  15  49 SW26      29.78F WCI  18
LIVINGSTON     CLOUDY    42  15  33 SW30G44   29.79S
MILES CITY     CLOUDY    23  14  68 VRB7      29.78R WCI  15
BIG TIMBER     CLEAR     39  16  38 W20       29.82F WCI  30
EKALAKA          N/A     43  20  40 S7        29.79F
FORSYTH          N/A     21  16  79 SE5       29.76S
HARLOWTON        N/A     30  20  66 W9        29.77F WCI  22
LAUREL           N/A     29  14  53 S20       29.79F WCI  16
$$

REGIONAL REPORTS...DAKOTAS

CITY           SKY/WX    TMP DP  RH WIND       PRES   REMARKS
WILLISTON      CLOUDY    31  23  72 SW15      29.69F WCI  20
MINOT          CLOUDY    37  27  67 SW16      29.65R WCI  28
DICKINSON      CLOUDY    32  22  66 SW20      29.72S WCI  20
BEACH            N/A     37  23  56 W16       29.77R WCI  28
CROSBY           N/A     28  27  93 S18       29.65S WCI  16
TIOGA            N/A     30  27  86 SW7       29.69S WCI  23
WATFORD CITY     N/A     28  23  80 SW13      29.70S WCI  18
BISMARCK       CLOUDY    20  15  81 SE3       29.75R
GRAND FORKS    CLOUDY    27  18  69 SW13      29.69R WCI  16
FARGO          CLOUDY    23  18  81 S12       29.75F WCI  12
BUFFALO SD       N/A     36  22  56 W9        29.74F WCI  29
RAPID CITY     CLOUDY    31  19  61 NW7       29.85S WCI  24
$$

REGIONAL REPORTS...WYOMING/IDAHO/WASHINGTON

CITY           SKY/WX    TMP DP  RH WIND       PRES   REMARKS
GILLETTE       CLOUDY    35  18  49 SW18      29.87S WCI  24
SHERIDAN       CLOUDY    27  19  72 S6        29.81F WCI  20
BUFFALO WY     CLOUDY    29  16  58 S5        29.87F
CODY           CLOUDY    16  11  80 NE6       29.88S WCI   7
YELLOWSTONE LA   N/A     -6  -9  86 CALM      30.10F
IDAHO FALLS    CLOUDY    -4  -6  91 N6        30.17F WCI -16
SALMON         CLOUDY    -9 -15  77 CALM      30.13F
BOISE          PTCLDY     9   4  80 CALM      30.12F HAZE
SPOKANE        LGTSLEET  32  30  92 SE8       29.75F FOG     WCI  25
$$

REGIONAL REPORTS...ALBERTA

CITY           SKY/WX    TMP DP  RH WIND       PRES   REMARKS
EDMONTON       CLEAR     34  23  64 S2        29.21F
CALGARY        PTCLDY    32  27  80 NW2       29.31F
LETHBRIDGE     CLEAR     39  28  65 SW10G20   29.47F
MEDICINE HAT   MOCLDY    43  30  61 SW10      29.47F
WATERTON GATE    N/A     43  28  56 SW37G53     N/A
CARDSTON         N/A     46  28  49 SE3         N/A
MILK RIVER       N/A     37  28  70 S10         N/A  WCI  30
$$

REGIONAL REPORTS...SASKATCHEWAN

CITY           SKY/WX    TMP DP  RH WIND       PRES   REMARKS
SWIFT CURRENT  PTCLDY    43  32  65 SW21G26   29.46F
REGINA         PTCLDY    30  27  86 S6        29.54F WCI  24
SASKATOON      MOCLDY    30  27  86 S8        29.42F WCI  23
CYPRESS HILLS    N/A     36  25  64 SW8         N/A  WCI  29
VAL MARIE        N/A     30  25  80 S5          N/A
ROCKGLEN         N/A     37  28  70 W18         N/A  WCI  27
ASSINIBOIA       N/A     36  30  80 S9          N/A  WCI  29
$$




USA.gov is the U.S. government's official web portal to all federal, state and local government web resources and services.